EW9965 Weather Reports


time (UTC)temp
F
wind
direction
speed
knots
gust
knots
rain 1hr
in
rain 24hr
in
rain mn
in
humidity
%
barometer
mb
20260903221506 84 224 2.6 7.8 0.00 0.00 0.00 45 1012.3
20260903220003 84 175 2.6 10.4 0.00 0.00 0.00 46 1012.3
20260903214502 84 124 4.3 10.4 0.00 0.00 0.00 47 1012.4
20260903213000 85 177 2.6 11.3 0.00 0.00 0.00 47 1012.4
20260903211600 85 156 5.2 12.2 0.00 0.00 0.00 46 1012.7
20260903210137 86 231 4.3 11.3 0.00 0.00 0.00 46 1012.5
20260903204558 85 172 6.1 10.4 0.00 0.00 0.00 45 1012.5
20260903203057 86 280 4.3 10.4 0.00 0.00 0.00 46 1012.6
20260903201556 87 214 3.5 11.3 0.00 0.00 0.00 44 1012.6
20260903200054 87 149 3.5 8.7 0.00 0.00 0.00 41 1012.6
20260903194552 86 182 5.2 8.7 0.00 0.00 0.00 33 1012.9
20260903193049 87 232 1.7 7.0 0.00 0.00 0.00 33 1013.0
20260903191548 85 103 2.6 5.2 0.00 0.00 0.00 33 1013.0
20260903190046 85 159 1.7 6.1 0.00 0.00 0.00 34 1013.3
20260903184550 84 261 0.0 7.8 0.00 0.00 0.00 34 1013.5
20260903183039 84 144 1.7 7.8 0.00 0.00 0.00 36 1013.9
20260903181537 83 192 0.9 7.8 0.00 0.00 0.00 37 1014.1
20260903180035 81 236 1.7 5.2 0.00 0.00 0.00 34 1014.1
20260903174526 79 195 0.9 5.2 0.00 0.00 0.00 42 1014.3
20260903173023 79 159 2.6 5.2 0.00 0.00 0.00 43 1014.4
20260903171525 77 130 0.0 6.1 0.00 0.00 0.00 46 1014.4
20260903170016 75 250 1.7 5.2 0.00 0.00 0.00 48 1014.6
20260903164510 74 157 0.0 4.3 0.00 0.00 0.00 50 1014.6
20260903163013 72 290 1.7 4.3 0.00 0.00 0.00 52 1014.7
20260903161507 71 216 0.9 4.3 0.00 0.00 0.00 52 1014.8
20260903160058 69 153 0.0 1.7 0.00 0.00 0.00 57 1014.8
20260903154558 67 233 0.0 1.7 0.00 0.00 0.00 60 1014.9
20260903153050 66 109 0.0 0.0 0.00 0.00 0.00 61 1014.8
20260903151547 64 109 0.0 0.0 0.00 0.00 0.00 75 1014.9
20260903150054 62 109 0.0 0.0 0.00 0.00 0.00 81 1015.0
20260903144540 60 72 0.0 0.0 0.00 0.00 0.00 84 1014.9
20260903143033 59 72 0.0 0.0 0.00 0.00 0.00 85 1014.9
20260903141528 57 28 0.0 0.0 0.00 0.00 0.00 84 1014.7
20260903140024 56 14 0.0 0.0 0.00 0.00 0.00 84 1014.4
20260903134521 56 11 0.0 0.0 0.00 0.00 0.00 84 1014.4
20260903133019 57 10 0.0 0.0 0.00 0.00 0.00 84 1014.3
20260903131518 57 10 0.0 0.0 0.00 0.00 0.00 84 1014.3
20260903130017 57 10 0.0 0.0 0.00 0.00 0.00 84 1014.2
20260903124516 57 351 0.0 0.0 0.00 0.00 0.00 84 1014.2
20260903123016 57 34 0.0 0.0 0.00 0.00 0.00 84 1014.2
20260903121531 57 25 0.0 0.0 0.00 0.00 0.00 85 1014.0
20260903120013 57 42 0.0 0.0 0.00 0.00 0.00 85 1014.1
20260903114511 58 41 0.0 0.0 0.00 0.00 0.00 85 1014.1
20260903113012 58 15 0.0 0.0 0.00 0.00 0.00 85 1014.1
20260903111509 58 4 0.0 0.9 0.00 0.00 0.00 85 1014.3
20260903110007 58 5 0.0 0.0 0.00 0.00 0.00 85 1014.3
20260903104506 58 37 0.0 0.9 0.00 0.00 0.00 85 1014.3
20260903103004 59 14 0.0 1.7 0.00 0.00 0.00 85 1014.3
20260903101503 59 14 0.9 1.7 0.00 0.00 0.00 85 1014.4
20260903100001 59 25 0.0 1.7 0.00 0.00 0.00 84 1014.4
20260903094610 59 45 0.0 1.7 0.00 0.00 0.00 84 1014.5
20260903091559 60 23 0.0 0.0 0.00 0.00 0.00 84 1014.7
20260903090053 60 23 0.0 0.0 0.00 0.00 0.00 84 1014.7
20260903084549 61 23 0.0 0.0 0.00 0.00 0.00 84 1014.9
20260903083051 61 19 0.0 0.0 0.00 0.00 0.00 83 1015.1
20260903081547 61 18 0.0 0.9 0.00 0.00 0.00 83 1015.2
20260903080045 62 8 0.0 1.7 0.00 0.00 0.00 83 1015.2
20260903074543 62 353 0.0 0.0 0.00 0.00 0.00 82 1015.2
20260903073041 62 5 0.0 0.0 0.00 0.00 0.00 81 1015.2
20260903071542 63 354 0.0 0.0 0.00 0.00 0.00 81 1015.2
20260903070038 63 8 0.0 0.0 0.00 0.00 0.00 80 1015.1
20260903064538 63 149 0.0 0.0 0.00 0.00 0.00 79 1015.2
20260903063037 64 149 0.0 0.0 0.00 0.00 0.00 77 1015.2
20260903061537 64 149 0.0 0.0 0.00 0.00 0.00 76 1015.2
20260903060042 65 149 0.0 0.0 0.00 0.00 0.00 74 1015.2
20260903054535 65 149 0.0 0.0 0.00 0.00 0.00 73 1015.1
20260903053038 66 149 0.0 0.0 0.00 0.00 0.00 72 1015.2
20260903051534 66 149 0.0 0.0 0.00 0.00 0.00 71 1015.3
20260903050037 67 149 0.0 0.0 0.00 0.00 0.00 70 1015.4
20260903044533 67 149 0.0 0.0 0.00 0.00 0.00 70 1015.3
20260903043032 68 149 0.0 0.0 0.00 0.00 0.00 69 1015.3
20260903041535 68 149 0.0 3.5 0.00 0.00 0.00 69 1015.2
20260903040031 69 166 0.0 3.5 0.00 0.00 0.00 69 1015.1
20260903034531 70 180 0.0 3.5 0.00 0.00 0.00 68 1014.9
20260903033031 70 185 0.0 0.9 0.00 0.00 0.00 66 1014.7
20260903031539 71 171 0.0 4.3 0.00 0.00 0.00 64 1014.6
20260903030030 71 180 0.9 4.3 0.00 0.00 0.00 61 1014.4
20260903024528 72 236 0.9 4.3 0.00 0.00 0.00 58 1014.4
20260903023031 73 214 0.9 4.3 0.00 0.00 0.00 57 1014.2
20260903021539 74 170 0.0 4.3 0.00 0.00 0.00 55 1014.1
20260903020033 76 207 0.0 7.8 0.00 0.00 0.00 54 1014.1
20260903014526 77 263 2.6 8.7 0.00 0.00 0.00 52 1014.0
20260903013025 78 227 2.6 7.0 0.00 0.00 0.00 50 1013.9
20260903011527 80 162 1.7 6.1 0.00 0.00 0.00 48 1013.8
20260903010028 81 207 0.9 6.1 0.00 0.00 0.00 46 1013.7
20260903004529 82 170 3.5 7.8 0.00 0.00 0.00 42 1013.6
20260903003021 83 217 1.7 11.3 0.00 0.00 0.00 42 1013.6
20260903001522 83 182 1.7 7.8 0.00 0.00 0.00 41 1013.6
20260903000035 84 117 3.5 7.8 0.00 0.00 0.00 42 1013.6
20260902234517 85 162 1.7 7.8 0.00 0.00 0.00 43 1013.6
20260902233016 85 155 2.6 7.8 0.00 0.00 0.00 41 1013.7
20260902231518 85 228 2.6 7.8 0.00 0.00 0.00 43 1013.9
20260902230011 86 190 2.6 7.8 0.00 0.00 0.00 40 1014.0
20260902224510 86 245 2.6 8.7 0.00 0.00 0.00 41 1014.1
20260902223019 86 125 5.2 10.4 0.00 0.00 0.00 41 1014.2